Theta_e
324 313 305 307 299 296 292 297 299 303 305 309 312 319 320 321 318 310 339 345 352 353 359 360 362 362 362 362 361 361 361 360 360 360 360 360 360 361 361 361 362 359 354 357 358 356 355 355 355
317 310 306 300 295 290 293 298 299 303 307 308 309 328 327 325 339 338 339 349 352 355 357 358 362 362 362 361 360 360 360 359 359 359 360 360 360 361 361 361 360 358 353 356 357 356 355 355 356
307 305 300 296 291 291 294 300 302 303 305 304 307 328 332 329 341 341 345 350 352 354 357 357 362 362 361 361 360 359 359 359 359 359 360 360 360 360 360 359 359 358 354 354 356 355 356 356 356
302 299 297 291 291 293 299 301 301 300 304 304 305 303 320 343 342 345 349 351 351 353 355 361 362 362 361 361 360 359 359 358 358 358 359 360 360 360 359 359 358 357 356 354 355 356 357 356 356
299 294 289 287 289 293 297 301 299 297 299 301 302 302 321 344 349 349 348 351 350 351 354 359 361 362 361 361 360 359 359 358 358 358 358 359 359 359 359 360 359 357 357 356 354 356 356 356 356
296 292 285 286 289 292 295 298 297 297 299 300 301 308 328 347 346 347 349 349 352 351 356 358 361 361 361 360 359 358 358 358 358 357 358 358 358 358 358 358 358 357 357 356 355 356 355 354 353
294 288 286 285 288 290 294 298 296 296 297 298 302 317 329 341 346 348 347 350 351 353 355 357 357 360 361 360 358 358 357 358 358 357 357 358 358 358 357 357 357 357 356 356 356 355 353 351 350
295 291 285 287 287 289 295 296 295 296 299 304 308 314 324 339 346 345 346 347 350 353 354 354 356 356 356 357 359 358 357 357 357 358 358 357 358 357 357 354 355 356 356 355 356 355 353 352 351
293 287 285 287 289 290 293 292 298 301 299 301 305 307 334 346 344 343 344 345 348 351 352 353 353 353 354 353 356 358 357 358 358 358 358 355 353 354 355 354 355 355 355 354 355 354 353 352 352
291 286 288 292 293 291 293 294 296 298 298 299 303 314 345 345 341 340 340 340 342 345 349 351 352 352 352 354 353 354 354 353 353 353 354 351 350 350 353 355 355 356 355 354 353 353 353 352 346
290 288 293 295 297 296 295 293 296 295 295 298 299 305 331 340 340 340 341 342 342 344 348 350 351 351 350 350 352 352 352 353 352 352 352 348 348 350 350 349 352 352 354 348 350 348 348 346 342
286 291 296 296 299 298 297 296 295 295 297 300 301 302 311 332 338 340 341 343 343 344 345 349 351 351 351 352 351 351 351 352 350 349 349 347 345 345 345 345 345 346 346 345 343 343 341 341 340
287 290 293 296 298 295 298 297 295 296 300 301 301 303 304 303 313 335 343 344 344 344 345 347 349 350 350 349 351 350 350 350 350 348 348 347 344 343 344 343 342 342 342 342 340 338 337 336 336
292 293 295 295 293 292 293 296 295 295 299 299 299 301 303 303 303 305 310 329 343 345 345 348 348 349 349 349 348 348 350 350 349 348 348 347 344 342 342 342 340 340 340 341 340 337 336 334 334
293 290 293 293 292 291 293 293 294 298 299 297 298 299 300 301 304 304 304 305 322 343 346 346 348 349 348 349 347 348 349 349 348 348 348 347 345 342 341 340 339 339 339 338 338 337 336 333 332
289 288 285 292 294 294 293 288 295 298 298 298 299 299 300 300 301 301 303 304 316 339 344 345 349 348 347 348 348 348 348 349 348 347 348 348 346 343 339 337 337 340 339 338 336 335 333 333 333
287 282 283 288 292 293 291 287 295 297 296 297 298 300 300 299 300 301 301 303 307 335 343 343 346 346 346 348 348 347 348 348 348 348 347 347 347 344 339 338 338 339 338 337 337 335 335 335 334
283 282 285 286 291 292 290 289 293 296 295 295 296 297 298 299 300 302 303 302 303 326 339 342 344 344 344 346 345 341 340 343 343 344 344 345 346 342 340 338 339 341 340 338 338 336 336 338 338
288 286 285 288 292 291 289 290 292 295 295 294 295 295 296 297 301 302 304 303 303 323 333 336 338 339 340 341 339 338 338 337 337 339 340 341 342 342 341 339 338 340 341 340 339 337 334 333 333
289 287 286 289 294 290 290 289 292 294 295 295 296 296 297 297 299 302 304 302 304 320 331 333 337 336 340 340 340 338 335 334 335 336 337 339 340 340 340 338 337 339 339 338 336 334 332 332 332
290 287 287 287 292 293 290 289 291 295 295 296 296 298 298 298 299 301 303 301 303 321 330 334 335 337 339 338 334 334 334 333 333 332 332 334 337 338 337 337 336 337 336 335 334 332 330 328 330
288 292 291 290 288 282 289 281 287 291 293 295 297 296 296 297 300 301 302 303 305 318 330 333 335 337 338 336 336 333 331 329 332 331 332 332 333 333 334 335 335 335 334 333 331 332 331 329 328
292 295 292 291 288 285 287 282 286 290 291 293 295 295 296 298 300 303 304 307 313 326 329 329 332 335 332 336 337 335 330 329 330 331 330 331 332 333 334 333 332 330 330 331 333 333 330 330 329
299 294 293 291 287 281 286 284 283 287 291 293 297 297 299 310 316 320 327 330 331 331 331 329 331 329 332 333 331 330 329 328 328 328 328 327 329 330 332 331 328 329 328 328 330 334 332 330 330
297 290 283 282 280 280 286 284 288 291 295 296 298 302 308 313 317 323 327 328 330 331 333 331 330 331 331 329 329 329 327 327 327 326 326 326 326 326 327 329 327 326 327 329 330 330 330 330 329
291 293 282 279 278 280 288 283 288 296 303 303 304 307 315 316 318 320 325 329 332 334 335 334 332 331 331 328 327 327 328 328 328 327 327 327 327 327 328 327 328 328 327 329 332 331 329 327 326
291 289 293 285 287 279 283 287 295 302 302 304 309 313 313 315 316 319 324 326 328 329 332 335 332 330 331 329 329 328 328 329 329 328 327 327 329 330 331 329 328 328 329 330 331 330 329 326 326
294 297 288 288 278 277 283 286 285 296 298 302 307 311 312 311 314 316 318 319 321 323 326 327 328 329 329 329 328 327 328 328 326 325 323 324 323 326 329 332 328 327 327 326 327 328 327 326 326
291 292 290 289 284 279 280 285 296 296 299 300 303 307 308 308 311 312 313 315 316 317 318 318 319 320 319 320 321 322 322 323 323 323 322 322 323 323 322 325 326 325 324 322 321 321 324 325 324
295 293 291 281 281 283 285 289 302 299 302 305 308 307 307 305 306 308 309 311 312 312 312 313 314 313 313 313 312 311 313 313 313 313 313 313 312 314 316 316 316 316 320 323 323 322 323 323 322
Wind_Speed
8 7 1 4 5 5 3 8 2 6 4 2 5 5 5 2 4 4 1 6 15 17 14 15 18 20 20 19 18 17 18 18 19 20 20 20 19 18 17 16 15 15 15 15 14 14 14 14 14
5 4 4 3 5 2 6 6 5 5 4 10 5 3 1 2 2 7 8 6 16 16 13 13 18 19 20 20 19 19 18 18 17 18 18 18 17 16 16 15 15 15 15 15 14 14 13 13 13
3 4 4 4 5 7 6 7 4 5 10 4 8 2 1 5 1 12 6 15 14 13 12 13 18 19 20 20 20 20 19 18 17 17 17 17 16 15 15 14 14 14 15 15 14 13 12 12 11
3 5 5 4 10 7 7 4 3 6 6 5 3 7 5 2 4 4 17 17 16 12 11 16 19 19 20 20 20 20 18 17 17 17 16 15 14 14 13 13 13 13 13 13 13 11 10 10 10
4 4 2 3 8 4 4 6 4 1 3 6 2 6 3 3 7 12 16 16 18 13 9 13 18 18 19 19 19 19 18 16 16 16 15 15 14 13 13 12 12 11 11 11 11 10 8 8 8
4 4 2 8 7 3 3 6 2 2 4 7 4 5 4 3 6 9 13 15 13 15 11 11 16 17 17 18 18 18 18 17 16 15 14 13 13 12 12 11 11 10 10 9 9 7 7 6 5
6 4 6 5 4 2 5 6 3 3 5 2 3 4 3 4 10 7 10 10 12 12 12 10 10 14 16 16 17 17 18 17 16 15 14 13 12 11 10 9 9 8 7 7 7 6 6 6 4
6 4 3 6 4 5 4 3 1 2 3 6 1 4 6 3 14 10 10 9 9 9 11 11 9 9 9 9 14 15 17 18 17 15 14 13 11 10 8 7 7 7 7 7 6 6 5 5 5
4 3 5 6 5 4 2 1 3 2 2 5 5 3 4 15 15 12 11 8 9 9 11 10 10 10 10 9 10 12 15 16 16 15 14 10 5 7 8 7 7 7 7 7 6 5 5 6 6
5 5 9 7 5 3 1 3 5 6 7 4 2 7 7 9 12 10 11 11 10 13 14 13 11 12 12 10 10 9 10 7 6 6 8 6 6 5 6 9 11 9 8 7 6 6 6 6 2
6 7 5 4 6 4 2 2 4 3 6 6 1 2 4 6 6 7 7 7 8 7 9 13 9 8 8 7 7 5 5 6 6 11 10 5 4 4 3 3 4 4 8 3 4 4 3 4 3
5 8 8 3 6 4 7 4 3 3 9 6 3 6 4 7 7 6 6 9 9 10 10 8 12 11 9 6 7 8 6 7 7 8 9 6 5 5 5 4 5 4 3 4 4 3 4 4 5
3 3 5 10 12 7 10 13 6 10 14 9 7 5 8 8 8 7 8 8 8 9 11 10 9 11 9 8 8 8 8 7 9 9 10 7 7 7 6 6 5 5 4 5 5 4 4 4 5
5 9 11 8 6 4 6 15 9 7 11 8 6 9 9 7 9 4 7 9 12 12 14 14 15 12 9 8 8 7 7 8 9 8 10 11 8 7 7 6 6 5 6 5 5 5 5 5 4
4 7 9 6 4 6 4 23 25 10 11 12 11 10 9 11 5 10 9 9 11 11 12 16 16 15 14 12 9 7 7 8 8 8 13 13 11 9 8 5 5 5 4 5 4 5 4 3 4
2 4 5 6 9 7 10 27 8 9 9 11 11 10 9 9 9 8 10 9 8 6 14 13 13 16 15 12 10 7 7 7 6 10 8 12 11 7 5 5 6 5 3 4 3 3 4 5 5
3 4 4 1 9 6 12 3 3 10 10 11 10 10 9 9 8 9 11 11 10 10 11 12 13 15 17 13 10 9 8 7 9 7 6 8 9 7 7 5 5 5 5 4 4 4 4 4 4
5 4 4 4 6 10 11 14 9 9 7 11 10 9 9 9 12 11 10 10 10 9 8 10 11 11 12 8 8 5 5 4 4 6 6 7 7 8 7 6 6 5 4 3 3 3 1 1 3
1 3 2 2 6 7 9 15 8 11 7 9 9 10 10 10 12 9 7 9 9 8 9 10 12 12 11 8 9 7 9 6 3 4 6 7 7 8 9 7 5 3 5 4 4 2 2 2 3
8 12 7 5 10 5 6 9 9 9 9 9 11 11 11 8 9 10 5 8 10 12 10 10 12 13 13 10 7 3 4 2 2 3 4 7 8 8 5 4 4 4 2 3 4 4 2 2 3
13 15 7 4 6 7 3 9 6 8 7 6 10 13 9 11 12 10 9 10 9 10 14 14 15 14 11 9 7 4 5 3 2 2 2 3 4 4 4 4 2 2 2 3 1 2 4 3 4
14 9 6 8 7 5 3 8 7 6 10 7 11 10 11 11 8 8 8 5 9 9 7 9 10 12 10 11 10 8 4 4 2 1 2 4 5 4 4 3 3 4 4 5 5 6 6 5 6
9 10 11 10 7 5 6 2 7 3 9 11 10 9 10 10 11 10 4 3 6 7 7 7 8 8 6 8 7 7 4 3 1 2 5 3 2 2 3 3 5 6 5 6 8 6 8 6 4
10 4 3 2 3 4 9 7 5 5 8 6 6 6 6 7 5 6 6 8 7 6 7 8 10 6 7 6 7 5 5 4 3 3 3 1 1 3 5 5 5 5 5 6 6 8 9 7 5
10 8 3 1 2 10 9 4 14 9 6 6 5 6 6 5 5 8 11 11 11 11 10 8 10 9 8 8 7 7 6 5 4 3 3 4 3 3 6 7 6 5 6 7 7 7 6 6 5
14 12 6 8 5 4 4 9 10 7 8 6 4 8 9 9 7 6 11 11 11 10 10 11 12 11 9 8 8 5 5 3 3 2 2 3 3 2 3 5 5 7 7 7 6 3 2 4 4
6 13 7 2 3 2 6 6 5 3 8 6 5 11 9 8 7 9 9 9 9 8 7 9 10 10 10 8 6 6 4 3 1 2 2 3 3 2 3 4 5 4 5 5 2 3 3 4 4
8 10 5 2 5 4 4 5 7 4 7 6 5 10 9 6 9 10 10 10 10 12 11 13 12 12 10 10 9 7 7 6 6 6 5 6 5 6 7 1 1 1 1 2 2 2 3 4 3
4 9 4 8 4 6 4 4 2 0 1 3 5 5 6 7 9 9 10 10 10 13 13 13 13 14 12 10 10 11 8 7 9 9 8 8 7 6 6 6 5 4 4 4 4 4 4 4 5
9 14 9 6 4 3 2 2 3 4 4 9 8 8 6 7 9 10 10 12 12 14 14 13 12 13 10 9 11 10 8 9 10 9 9 8 10 10 10 11 10 9 9 8 7 6 6 5 7
Wind_Direction
316 320 94 44 55 63 258 261 258 303 317 220 273 227 182 167 170 217 41 164 133 142 148 151 148 141 134 131 129 125 122 126 130 133 136 139 143 146 144 141 141 141 140 137 132 129 126 124 125
326 343 39 81 99 112 261 262 215 237 292 305 269 218 358 234 126 108 119 155 143 142 147 148 148 140 135 134 134 132 133 134 135 136 139 140 144 145 142 142 144 146 145 142 138 138 135 134 137
337 25 86 119 148 194 214 225 208 314 302 305 342 349 88 299 151 155 154 142 138 141 146 152 146 141 139 139 139 140 140 140 139 140 142 143 144 143 142 143 146 149 149 149 148 147 145 145 145
39 9 32 118 222 246 200 162 178 343 318 1 327 309 313 75 147 172 137 140 138 139 149 155 148 145 144 144 144 141 141 141 141 143 142 143 143 143 142 146 148 151 154 153 152 153 153 153 153
30 56 79 258 243 246 234 272 186 16 254 282 352 275 239 55 72 126 138 145 143 140 145 152 149 149 148 148 145 143 142 143 143 145 146 148 146 146 147 149 151 155 156 157 161 162 161 160 161
48 97 82 231 223 169 276 253 270 221 186 272 338 292 250 108 90 144 141 144 144 141 142 153 153 151 150 151 150 147 145 147 148 151 152 152 151 151 152 153 155 158 160 164 170 171 168 168 173
123 102 217 263 275 286 220 211 232 252 307 222 245 242 274 133 114 124 124 119 132 138 142 148 153 155 152 155 155 153 150 150 153 155 155 156 155 156 155 158 158 160 165 170 174 181 187 190 195
117 110 214 233 248 264 257 200 79 145 281 296 234 246 267 126 119 111 101 107 118 134 145 153 151 151 147 156 159 159 156 155 157 160 159 157 159 160 156 158 163 168 174 189 193 196 209 223 231
134 115 226 238 166 233 274 11 332 292 288 339 334 310 308 123 116 112 111 105 129 152 160 161 160 157 154 150 163 162 165 163 162 161 160 152 155 163 172 174 181 178 188 204 211 216 226 241 258
155 175 219 201 202 227 70 20 346 349 354 324 347 43 89 119 129 134 145 150 162 176 179 178 175 173 164 165 166 158 163 157 151 152 163 161 167 171 175 185 190 193 196 208 219 228 235 249 253
186 208 231 221 233 267 227 224 254 221 297 224 96 78 118 115 112 142 152 169 176 174 188 188 182 176 171 168 161 161 165 160 159 170 173 154 154 179 186 193 202 190 200 202 212 225 225 232 229
197 221 220 193 223 261 260 187 237 235 238 271 291 302 164 166 162 182 179 174 176 177 186 185 191 188 176 161 176 176 172 167 174 181 180 163 170 187 193 200 204 195 197 203 202 209 222 236 233
233 256 222 241 250 248 287 251 219 252 268 276 286 267 256 181 199 208 195 175 166 185 184 181 178 188 186 171 175 170 175 172 177 181 189 178 184 193 191 203 195 201 185 203 207 210 216 236 248
208 209 239 249 238 245 241 275 181 215 255 278 282 248 250 233 212 198 187 200 193 192 191 179 184 183 176 179 180 178 172 171 175 182 193 193 192 197 197 202 208 209 206 211 207 213 219 231 217
258 267 268 230 216 246 132 278 246 205 240 259 263 261 236 228 222 222 217 208 196 202 186 188 184 179 180 182 176 181 177 181 187 190 202 198 197 198 194 198 209 214 201 203 201 217 220 243 240
230 149 227 225 185 226 165 256 262 186 198 243 240 249 234 250 202 221 236 230 221 186 189 186 184 184 182 183 178 179 177 185 194 210 202 203 203 190 182 192 207 205 200 209 208 195 221 230 234
283 225 175 262 192 175 198 279 291 192 192 227 235 232 248 259 260 234 203 220 220 201 187 184 184 187 186 180 179 179 183 190 201 207 204 201 198 187 184 201 217 196 201 200 201 212 216 241 243
201 191 228 180 209 204 224 241 276 283 207 219 235 250 250 258 252 243 238 194 219 205 188 183 179 178 181 176 164 150 166 195 190 195 193 186 193 183 192 210 219 198 191 205 206 230 221 257 300
327 241 245 283 238 203 230 258 242 262 228 240 234 235 240 239 257 263 252 183 194 189 172 168 163 169 161 175 179 179 195 186 196 186 179 183 182 188 199 215 210 193 200 180 149 151 89 50 354
226 246 240 274 270 180 270 268 245 246 250 207 233 238 239 236 254 259 236 175 189 183 184 169 176 170 179 178 184 178 148 136 149 157 178 190 187 193 190 173 181 199 167 172 195 155 149 181 204
223 230 234 218 303 281 274 285 258 260 247 243 233 237 230 217 243 252 257 182 179 188 184 181 180 175 173 159 124 93 85 74 120 180 186 191 177 162 144 150 158 225 248 248 242 181 170 200 197
228 179 177 205 191 225 163 276 265 251 265 264 261 232 223 215 231 250 255 163 188 199 169 165 161 165 167 160 163 159 151 147 199 178 96 110 116 126 142 141 191 197 216 206 193 185 209 209 231
235 174 194 209 213 167 246 242 260 311 278 270 264 231 217 213 216 237 256 147 194 164 143 125 130 146 146 163 168 157 141 100 113 86 94 96 107 201 212 210 230 209 188 213 208 198 212 200 189
220 263 81 83 129 210 206 173 272 217 227 271 242 222 193 176 173 108 111 126 128 120 127 133 138 104 108 112 89 100 118 104 111 83 93 64 251 236 231 217 209 212 208 209 208 206 210 198 199
203 175 256 311 246 236 147 164 241 268 257 252 262 130 101 83 113 132 138 131 134 137 141 106 106 105 100 98 103 103 95 93 117 130 196 208 222 216 216 212 205 207 218 222 221 221 201 171 167
203 179 168 188 195 225 102 221 244 260 285 329 53 107 80 64 57 80 116 122 117 108 113 121 124 121 110 104 96 98 112 120 116 179 203 233 219 217 191 211 220 217 220 224 223 236 174 155 184
190 184 168 322 192 145 202 239 317 9 25 40 108 94 82 76 73 79 82 93 92 86 83 100 103 99 99 102 107 101 117 123 120 261 287 307 324 308 232 207 219 221 240 239 279 243 237 182 184
158 139 135 239 172 209 242 206 226 357 346 10 54 107 96 88 89 80 81 77 84 85 81 79 80 87 91 93 95 95 91 87 83 71 63 53 28 20 18 70 80 289 348 6 334 254 210 195 181
136 175 140 131 200 168 174 243 272 64 355 22 34 41 70 90 93 84 81 77 78 84 81 81 80 82 77 81 87 89 78 78 77 70 56 43 33 28 38 34 22 7 345 338 337 318 300 268 231
183 165 201 136 207 229 152 220 76 113 98 103 71 72 72 64 65 75 78 80 76 82 82 81 83 86 79 80 78 69 65 61 60 57 54 49 49 41 43 43 39 27 29 24 18 358 331 287 267